TimeMST,TemperatureF,Dew PointF,Humidity,Sea Level PressureIn,VisibilityMPH,Wind Direction,Wind SpeedMPH,Gust SpeedMPH,PrecipitationIn,Events,Conditions,WindDirDegrees,DateUTC
12:35 AM,35.6,19.4,52,29.75,10.0,South,12.7,16.1,N/A,,Mostly Cloudy,170,2013-02-19 07:35:00
12:55 AM,35.6,19.4,52,29.75,10.0,South,15.0,-,N/A,,Scattered Clouds,190,2013-02-19 07:55:00
1:15 AM,35.6,19.4,52,29.74,10.0,South,12.7,21.9,N/A,,Mostly Cloudy,180,2013-02-19 08:15:00
1:35 AM,35.6,19.4,52,29.74,10.0,SSE,8.1,17.3,N/A,,Overcast,160,2013-02-19 08:35:00
1:55 AM,35.6,19.4,52,29.74,10.0,South,11.5,19.6,N/A,,Overcast,170,2013-02-19 08:55:00
2:55 AM,35.6,19.4,52,29.72,10.0,South,11.5,19.6,N/A,,Overcast,170,2013-02-19 09:55:00
3:15 AM,35.6,19.4,52,29.72,10.0,South,17.3,25.3,N/A,,Overcast,190,2013-02-19 10:15:00
3:35 AM,35.6,17.6,48,29.71,10.0,South,17.3,28.8,N/A,,Overcast,180,2013-02-19 10:35:00
3:55 AM,37.4,17.6,45,29.70,10.0,South,17.3,29.9,N/A,,Overcast,190,2013-02-19 10:55:00
4:15 AM,37.4,17.6,45,29.69,10.0,South,16.1,23.0,N/A,,Overcast,170,2013-02-19 11:15:00
4:35 AM,37.4,17.6,45,29.70,10.0,South,13.8,18.4,N/A,,Overcast,180,2013-02-19 11:35:00
4:55 AM,35.6,17.6,48,29.68,10.0,SSE,9.2,-,N/A,,Overcast,160,2013-02-19 11:55:00
5:15 AM,35.6,17.6,48,29.68,10.0,South,5.8,-,N/A,,Overcast,170,2013-02-19 12:15:00
5:35 AM,35.6,19.4,52,29.69,10.0,South,8.1,-,N/A,,Overcast,180,2013-02-19 12:35:00
5:55 AM,35.6,19.4,52,29.69,10.0,South,16.1,19.6,N/A,,Overcast,190,2013-02-19 12:55:00
6:15 AM,35.6,19.4,52,29.69,10.0,SSW,12.7,-,N/A,,Overcast,200,2013-02-19 13:15:00
6:35 AM,35.6,19.4,52,29.69,10.0,South,15.0,24.2,N/A,,Overcast,190,2013-02-19 13:35:00
6:55 AM,35.6,17.6,48,29.69,10.0,SSW,16.1,27.6,N/A,,Overcast,210,2013-02-19 13:55:00
7:15 AM,35.6,17.6,48,29.69,10.0,SSW,13.8,21.9,N/A,,Mostly Cloudy,200,2013-02-19 14:15:00
7:55 AM,37.4,17.6,45,29.69,10.0,South,10.4,-,N/A,,Overcast,180,2013-02-19 14:55:00
8:15 AM,35.6,17.6,48,29.70,10.0,SSE,6.9,-,N/A,,Overcast,150,2013-02-19 15:15:00
8:35 AM,35.6,19.4,52,29.71,10.0,South,5.8,-,N/A,,Overcast,190,2013-02-19 15:35:00
8:55 AM,35.6,19.4,52,29.71,10.0,ESE,5.8,-,N/A,,Overcast,120,2013-02-19 15:55:00
9:15 AM,35.6,19.4,52,29.71,10.0,ESE,4.6,-,N/A,,Overcast,120,2013-02-19 16:15:00
9:35 AM,37.4,19.4,48,29.70,10.0,SSE,3.5,-,N/A,,Overcast,150,2013-02-19 16:35:00
9:55 AM,37.4,19.4,48,29.70,10.0,Calm,Calm,-,N/A,,Overcast,0,2013-02-19 16:55:00
10:15 AM,37.4,19.4,48,29.70,10.0,ENE,3.5,-,N/A,,Overcast,60,2013-02-19 17:15:00
10:35 AM,37.4,19.4,48,29.70,10.0,ENE,3.5,-,N/A,,Overcast,70,2013-02-19 17:35:00
10:55 AM,39.2,19.4,45,29.69,10.0,SSW,5.8,-,N/A,,Overcast,210,2013-02-19 17:55:00
11:15 AM,39.2,19.4,45,29.70,10.0,WSW,3.5,-,N/A,,Overcast,240,2013-02-19 18:15:00
11:35 AM,39.2,21.2,49,29.70,10.0,NW,4.6,-,N/A,,Unknown,310,2013-02-19 18:35:00
11:55 AM,37.4,28.4,70,29.70,10.0,West,13.8,-,N/A,,Overcast,280,2013-02-19 18:55:00
12:15 PM,37.4,35.6,93,29.71,9.0,WNW,12.7,-,N/A,,Overcast,290,2013-02-19 19:15:00
12:35 PM,33.8,33.8,100,29.71,1.2,WNW,13.8,-,N/A,,Mostly Cloudy,290,2013-02-19 19:35:00
12:55 PM,33.8,33.8,100,29.71,1.5,WNW,11.5,-,0.01,,Scattered Clouds,300,2013-02-19 19:55:00
1:15 PM,35.6,35.6,100,29.70,2.5,NNW,6.9,-,N/A,,Scattered Clouds,330,2013-02-19 20:15:00
1:35 PM,35.6,35.6,100,29.71,10.0,NW,6.9,-,N/A,,Overcast,320,2013-02-19 20:35:00
1:55 PM,35.6,35.6,100,29.71,10.0,NNW,6.9,-,N/A,,Overcast,340,2013-02-19 20:55:00
2:15 PM,35.6,35.6,100,29.71,10.0,North,4.6,-,N/A,,Overcast,10,2013-02-19 21:15:00
2:35 PM,37.4,37.4,100,29.71,10.0,NNE,5.8,-,N/A,,Overcast,30,2013-02-19 21:35:00
2:55 PM,37.4,37.4,100,29.71,10.0,North,6.9,-,N/A,,Overcast,350,2013-02-19 21:55:00
3:15 PM,37.4,37.4,100,29.71,10.0,North,8.1,-,N/A,,Overcast,350,2013-02-19 22:15:00
3:55 PM,37.4,37.4,100,29.72,10.0,NNW,6.9,-,N/A,,Overcast,340,2013-02-19 22:55:00
4:15 PM,39.2,39.2,100,29.71,10.0,NNW,9.2,-,N/A,,Mostly Cloudy,340,2013-02-19 23:15:00
5:15 PM,37.4,37.4,100,29.72,10.0,NW,9.2,-,N/A,,Scattered Clouds,320,2013-02-20 00:15:00
5:35 PM,37.4,37.4,100,29.72,10.0,NNW,8.1,-,N/A,,Clear,340,2013-02-20 00:35:00
5:55 PM,37.4,35.6,93,29.72,10.0,NNW,6.9,-,N/A,,Clear,340,2013-02-20 00:55:00
6:15 PM,37.4,35.6,93,29.72,10.0,North,5.8,-,N/A,,Partly Cloudy,350,2013-02-20 01:15:00
6:35 PM,37.4,35.6,93,29.73,10.0,NNW,4.6,-,N/A,,Mostly Cloudy,330,2013-02-20 01:35:00
6:55 PM,37.4,37.4,100,29.73,10.0,NW,4.6,-,N/A,,Mostly Cloudy,320,2013-02-20 01:55:00
7:15 PM,35.6,35.6,100,29.74,10.0,WNW,6.9,-,N/A,,Mostly Cloudy,290,2013-02-20 02:15:00
7:35 PM,35.6,35.6,100,29.74,10.0,NW,5.8,-,N/A,,Partly Cloudy,310,2013-02-20 02:35:00
7:55 PM,35.6,35.6,100,29.74,10.0,NW,5.8,-,N/A,,Clear,310,2013-02-20 02:55:00
8:35 PM,35.6,35.6,100,29.75,10.0,NW,5.8,-,N/A,,Clear,310,2013-02-20 03:35:00
8:55 PM,33.8,33.8,100,29.75,10.0,WNW,6.9,-,N/A,,Clear,300,2013-02-20 03:55:00
9:15 PM,33.8,33.8,100,29.75,10.0,NW,6.9,-,N/A,,Clear,310,2013-02-20 04:15:00
9:35 PM,32.0,32.0,100,29.76,10.0,WNW,8.1,-,N/A,,Clear,300,2013-02-20 04:35:00
9:55 PM,32.0,32.0,100,29.76,10.0,WNW,6.9,-,N/A,,Clear,300,2013-02-20 04:55:00
10:15 PM,32.0,32.0,100,29.77,9.0,WNW,8.1,-,N/A,,Clear,290,2013-02-20 05:15:00
10:55 PM,32.0,32.0,100,29.78,9.0,WNW,10.4,-,N/A,,Clear,300,2013-02-20 05:55:00
11:15 PM,32.0,32.0,100,29.78,9.0,WNW,11.5,-,N/A,,Clear,300,2013-02-20 06:15:00
11:35 PM,32.0,32.0,100,29.78,9.0,WNW,9.2,-,N/A,,Clear,300,2013-02-20 06:35:00
11:55 PM,32.0,32.0,100,29.78,10.0,NW,8.1,-,N/A,,Clear,310,2013-02-20 06:55:00